Regional Weather Roundup
Issued by NWS Charleston, SC

Current Version | Previous Version | Text Only | Print | Product List | Glossary Off
Versions: 1 2 3 4 5 6 7 8 9 10 11 12 13 14 15 16 17 18 19 20 21 22 23 24 25 26 27 28 29 30 31 32 33 34 35 36 37 38 39 40 41 42 43 44 45 46 47 48 49 50

000
ASUS42 KCHS 281425
RWRCHS

REGIONAL WEATHER ROUNDUP
NATIONAL WEATHER SERVICE CHARLESTON SC
900 AM EST FRI NOV 28 2014

NOTE: "FAIR" INDICATES FEW OR NO CLOUDS BELOW 12,000 FEET WITH NO
SIGNIFICANT WEATHER AND/OR OBSTRUCTIONS TO VISIBILITY.

NOT ALL STATIONS ARE QUALITY CONTROLLED BY THE NATIONAL
WEATHER SERVICE. USE DATA WITH CAUTION...ESPECIALLY
DEWPOINT OBSERVATIONS.

SCZ027-030-031-034>040-042>050-281500-
...SOUTHEAST SOUTH CAROLINA...

CITY           SKY/WX    TMP DP  RH WIND       PRES   REMARKS
N CHARLESTON   SUNNY     40  24  53 NE10      30.39R WCI  33
WATERFRONT PRK   N/A     39 N/A N/A N16         N/A  WCI  30
MOUNT PLEASANT FAIR      39  28  65 N7        30.39R WCI  34
JOHNS ISLAND   SUNNY     43  28  56 N14G21    30.39R
PINOPOLIS        N/A     39  27  60 NE17      30.31R WCI  30
MONCKS CORNER  FAIR      41  28  60 N8G17     30.39R
SUMMERVILLE    FAIR      41  28  60 N9        30.40S
BEAUFORT MCAS  SUNNY     40  28  62 N10       30.40R WCI  33
BEAUFORT ARPT  FAIR      41  32  70 N13       30.39R
HILTON HEAD IS SUNNY     39  32  75 N12G17    30.40R WCI  32
WALTERBORO     SUNNY     41  27  56 NE7       30.41R
ALLENDALE      FAIR      39  28  65 N8        30.41R WCI  34

...SOUTHERN MIDLANDS AND PEE DEE...

CITY           SKY/WX    TMP DP  RH WIND       PRES   REMARKS
GEORGETOWN     NOT AVBL
KINGSTREE      NOT AVBL
ORANGEBURG     SUNNY     38  25  59 N10       30.40R WCI  31
BARNWELL       FAIR      37  30  75 NE7       30.42R WCI  32
AIKEN          FAIR      36  27  69 N7        30.44R WCI  30
MANNING        NOT AVBL
COLUMBIA       SUNNY     38  24  57 N3        30.41R
SUMTER         SUNNY     36  24  61 N7        30.38R WCI  30
FLORENCE       SUNNY     37  24  59 N10       30.38R WCI  30
MYRTLE BEACH   SUNNY     37  23  56 N15       30.38R WCI  28
N MYRTLE BEACH SUNNY     38  26  62 N9        30.36R WCI  31

$$

GAZ063-065-086>088-099>101-113>116-118-119-134>141-150-281500-
...SOUTHEAST GEORGIA...

CITY           SKY/WX    TMP DP  RH WIND       PRES   REMARKS
SAVANNAH ARPT  SUNNY     41  28  60 NE10      30.39R
HUNTER AAF     SUNNY     40  28  64 NE8G18    30.37R WCI  34
FORT STEWART   SUNNY     40  29  64 N8        30.38R WCI  34
STATESBORO     NOT AVBL
SYLVANIA       SUNNY     41  32  70 NE7       30.42R
CLAXTON        NOT AVBL

...CSRA...CENTRAL AND FAR SOUTHEAST GEORGIA...

CITY           SKY/WX    TMP DP  RH WIND       PRES   REMARKS
THOMSON        SUNNY     37  33  87 CALM      30.46R
AUGUSTA-BUSH   SUNNY     36  28  73 N6        30.43R WCI  31
AUGUSTA-DANIEL SUNNY     37  24  59 N7        30.42R WCI  32
SWAINSBORO     FAIR      41  32  70 NE6       30.42R
VIDALIA        SUNNY     37  32  81 N7        30.42R WCI  32
HAZLEHURST     FAIR      38  31  74 N7        30.41R WCI  33
ALMA           SUNNY     38  27  64 N9        30.40R WCI  31
WAYCROSS       SUNNY     43  33  69 N7        30.41R
JESUP          FAIR      43  32  65 NE8       30.40R
BAXLEY         FAIR      41  32  70 N10       30.40R
BRUNSWICK      SUNNY     43  32  65 N5        30.39R
SAINT SIMONS   SUNNY     40  30  67 N10       30.38R WCI  33

$$

SCZ027-028-034-036>038-045-046-048>050-GAZ119-141-281500-
...LAKE AND SUPPLEMENTAL COASTAL OBSERVATIONS...

STATION/POSITION TIME  TEMP    WIND        PRES    WAVE   SWELL
                       AIR SEA DIR/SP/G            HT/PER HT/PER/DIR
                 (UTC) (F)     (DEG/KT/KT) (MB)    (FT/S) (FT/S/D)
UPR LAKE MARION  NOT AVBL
WINYAH BAY       1400   38     350/  8     1028.0S
LAKE MURRAY      1400   35     330/  2/  5 1029.1R
ACE BASIN NERRS  1400   38      20/  4     1028.0S
FORT PULASKI     1400   41      10/ 12/ 16 1029.0R
SAPELO ISLAND    1400   42      10/ 12     1028.0S

$$

ANZ835-935-AMZ111-154-330-350-352-354-370-450-454-472-281500-
...C-MAN AND BUOY OBSERVATIONS...

STATION/POSITION TIME  TEMP    WIND        PRES    WAVE   SWELL
                       AIR SEA DIR/SP/G            HT/PER HT/PER/DIR
                 (UTC) (F)     (DEG/KT/KT) (MB)    (FT/S) (FT/S/D)
BUOY 41004       1400   47 72   10/ 19/ 25 1026.6R   7/ 6   2/ 9
BUOY 41008       1400   47 63   30/ 17/ 23 1027.5R   5/ 5
FOLLY BEACH CMAN 1400   40      20/ 17/ 21 1029.3R
CAPERS NEARSHORE NOT AVBL
FRIPP NEARSHORE  NOT AVBL


STATION/POSITION TIME  TEMP    WIND        PRES    WAVE   SWELL
                       AIR SEA DIR/SP/G            HT/PER HT/PER/DIR
                 (UTC) (F)     (DEG/KT/KT) (MB)    (FT/S) (FT/S/D)
5E ST. MARYS GA  1400      61                N/A     5/ 5   2/100/13
FRYING PAN BUOY  1400   44 68  360/ 17/ 23 1026.9R   6/ 6   2/100/ 9
BUOY 41025       1400   45     330/ 21/ 29 1024.2R   6/ 6   2/130/13
CAPE LOOKOUT NC  1400   38     350/ 14/ 17 1026.4R
BUOY 41002       1335   58 72  340/ 19/ 27 1022.3R  10/ 9
BUOY 41010       1400   65 77  350/ 19/ 27 1022.9R   7/ 8   3/ 20/13
ST AUGUSTINE FL  1400   44     340/ 15/ 16 1027.9R


$$



USA.gov is the U.S. government's official web portal to all federal, state and local government web resources and services.